Time,TemperatureF,DewpointF,PressureIn,WindDirection,WindDirectionDegrees,WindSpeedMPH,WindSpeedGustMPH,Humidity,HourlyPrecipIn,Conditions,Clouds,dailyrainin,SolarRadiationWatts/m^2,SoftwareType,DateUTC
2013-06-15 00:01:00,62.4,56.1,29.86,North,360,0.0,4.0,80,0.00,,,0.00,0,Wunderground v.1.15,2013-06-15 04:01:00,
2013-06-15 00:03:00,62.4,56.1,29.86,North,360,0.0,4.0,80,0.00,,,0.00,0,Wunderground v.1.15,2013-06-15 04:03:00,
2013-06-15 00:07:00,62.3,56.0,29.86,North,360,0.0,0.0,80,0.00,,,0.00,0,Wunderground v.1.15,2013-06-15 04:07:00,
2013-06-15 00:09:00,62.3,56.0,29.86,North,360,0.0,0.0,80,0.00,,,0.00,0,Wunderground v.1.15,2013-06-15 04:09:00,
2013-06-15 00:15:00,62.3,56.0,29.86,North,360,0.0,0.0,80,0.00,,,0.00,0,Wunderground v.1.15,2013-06-15 04:15:00,
2013-06-15 00:21:00,62.3,56.0,29.86,North,360,0.0,0.0,80,0.00,,,0.00,0,Wunderground v.1.15,2013-06-15 04:21:00,
2013-06-15 00:27:00,62.3,56.0,29.86,North,360,0.0,0.0,80,0.00,,,0.00,0,Wunderground v.1.15,2013-06-15 04:27:00,
2013-06-15 00:33:00,62.3,56.0,29.86,North,360,0.0,0.0,80,0.00,,,0.00,0,Wunderground v.1.15,2013-06-15 04:33:00,
2013-06-15 00:39:00,62.1,55.9,29.86,North,360,0.0,0.0,80,0.00,,,0.00,0,Wunderground v.1.15,2013-06-15 04:39:00,
2013-06-15 00:44:00,62.1,55.9,29.86,North,360,0.0,0.0,80,0.00,,,0.00,0,Wunderground v.1.15,2013-06-15 04:44:00,
2013-06-15 00:50:00,62.1,55.9,29.86,North,360,0.0,0.0,80,0.00,,,0.00,0,Wunderground v.1.15,2013-06-15 04:50:00,
2013-06-15 00:56:00,62.0,56.1,29.86,North,360,0.0,0.0,81,0.00,,,0.00,0,Wunderground v.1.15,2013-06-15 04:56:00,
2013-06-15 01:02:00,61.8,55.9,29.86,North,360,0.0,0.0,81,0.00,,,0.00,0,Wunderground v.1.15,2013-06-15 05:02:00,
2013-06-15 01:09:00,61.6,55.7,29.86,North,360,0.0,0.0,81,0.00,,,0.00,0,Wunderground v.1.15,2013-06-15 05:09:00,
2013-06-15 01:16:00,61.5,55.6,29.86,North,360,0.0,2.0,81,0.00,,,0.00,0,Wunderground v.1.15,2013-06-15 05:16:00,
2013-06-15 01:22:00,61.3,55.8,29.86,North,360,0.0,2.0,82,0.00,,,0.00,0,Wunderground v.1.15,2013-06-15 05:22:00,
2013-06-15 01:29:00,61.3,55.8,29.86,North,360,0.0,0.0,82,0.00,,,0.00,0,Wunderground v.1.15,2013-06-15 05:29:00,
2013-06-15 01:36:00,61.3,55.8,29.86,North,360,0.0,1.0,82,0.00,,,0.00,0,Wunderground v.1.15,2013-06-15 05:36:00,
2013-06-15 01:42:00,61.3,55.8,29.86,North,360,0.0,2.0,82,0.00,,,0.00,0,Wunderground v.1.15,2013-06-15 05:42:00,
2013-06-15 01:50:00,61.5,55.6,29.87,North,360,0.0,0.0,81,0.00,,,0.00,0,Wunderground v.1.15,2013-06-15 05:50:00,
2013-06-15 01:56:00,61.8,55.9,29.87,North,360,0.0,0.0,81,0.00,,,0.00,0,Wunderground v.1.15,2013-06-15 05:56:00,
2013-06-15 02:02:00,62.0,55.8,29.87,North,360,0.0,2.0,80,0.00,,,0.00,0,Wunderground v.1.15,2013-06-15 06:02:00,
2013-06-15 02:10:00,62.3,55.7,29.87,North,360,1.0,2.0,79,0.00,,,0.00,0,Wunderground v.1.15,2013-06-15 06:10:00,
2013-06-15 02:16:00,62.6,55.6,29.88,North,360,1.0,1.0,78,0.00,,,0.00,0,Wunderground v.1.15,2013-06-15 06:16:00,
2013-06-15 02:22:00,62.9,55.6,29.88,North,360,1.0,1.0,77,0.00,,,0.00,0,Wunderground v.1.15,2013-06-15 06:22:00,
2013-06-15 02:28:00,63.2,55.1,29.88,North,360,1.0,1.0,75,0.00,,,0.00,0,Wunderground v.1.15,2013-06-15 06:28:00,
2013-06-15 02:36:00,63.4,55.3,29.88,North,360,0.0,0.0,75,0.00,,,0.00,0,Wunderground v.1.15,2013-06-15 06:36:00,
2013-06-15 02:41:00,63.4,55.0,29.88,North,360,0.0,0.0,74,0.00,,,0.00,0,Wunderground v.1.15,2013-06-15 06:41:00,
2013-06-15 02:47:00,63.4,55.0,29.88,North,360,0.0,0.0,74,0.00,,,0.00,0,Wunderground v.1.15,2013-06-15 06:47:00,
2013-06-15 02:53:00,63.4,55.0,29.88,North,360,0.0,0.0,74,0.00,,,0.00,0,Wunderground v.1.15,2013-06-15 06:53:00,
2013-06-15 03:00:00,63.4,55.0,29.89,North,360,1.0,1.0,74,0.00,,,0.00,0,Wunderground v.1.15,2013-06-15 07:00:00,
2013-06-15 03:05:00,63.4,55.0,29.89,North,360,1.0,2.0,74,0.00,,,0.00,0,Wunderground v.1.15,2013-06-15 07:05:00,
2013-06-15 03:11:00,63.4,55.0,29.89,North,360,1.0,3.0,74,0.00,,,0.00,0,Wunderground v.1.15,2013-06-15 07:11:00,
2013-06-15 03:17:00,63.5,55.1,29.89,North,360,2.0,2.0,74,0.00,,,0.00,0,Wunderground v.1.15,2013-06-15 07:17:00,
2013-06-15 03:23:00,63.7,54.9,29.89,North,360,3.0,4.0,73,0.00,,,0.00,0,Wunderground v.1.15,2013-06-15 07:23:00,
2013-06-15 03:29:00,63.9,54.7,29.89,North,360,2.0,3.0,72,0.00,,,0.00,0,Wunderground v.1.15,2013-06-15 07:29:00,
2013-06-15 03:35:00,63.9,54.7,29.89,North,360,1.0,4.0,72,0.00,,,0.00,0,Wunderground v.1.15,2013-06-15 07:35:00,
2013-06-15 03:40:00,63.9,54.7,29.89,North,360,1.0,2.0,72,0.00,,,0.00,0,Wunderground v.1.15,2013-06-15 07:40:00,
2013-06-15 03:47:00,63.9,54.7,29.88,North,360,1.0,1.0,72,0.00,,,0.00,0,Wunderground v.1.15,2013-06-15 07:47:00,
2013-06-15 03:52:00,63.7,54.5,29.88,North,360,0.0,1.0,72,0.00,,,0.00,0,Wunderground v.1.15,2013-06-15 07:52:00,
2013-06-15 03:59:00,63.5,54.7,29.88,North,360,0.0,3.0,73,0.00,,,0.00,0,Wunderground v.1.15,2013-06-15 07:59:00,
2013-06-15 04:04:00,63.4,54.6,29.88,North,360,0.0,3.0,73,0.00,,,0.00,0,Wunderground v.1.15,2013-06-15 08:04:00,
2013-06-15 04:11:00,63.2,54.4,29.88,North,360,0.0,0.0,73,0.00,,,0.00,0,Wunderground v.1.15,2013-06-15 08:11:00,
2013-06-15 04:16:00,62.9,54.5,29.88,North,360,0.0,0.0,74,0.00,,,0.00,0,Wunderground v.1.15,2013-06-15 08:16:00,
2013-06-15 04:22:00,62.6,54.2,29.88,North,360,0.0,0.0,74,0.00,,,0.00,0,Wunderground v.1.15,2013-06-15 08:22:00,
2013-06-15 04:29:00,62.3,54.3,29.88,North,360,0.0,0.0,75,0.00,,,0.00,0,Wunderground v.1.15,2013-06-15 08:29:00,
2013-06-15 04:36:00,62.0,54.7,29.89,North,360,1.0,2.0,77,0.00,,,0.00,0,Wunderground v.1.15,2013-06-15 08:36:00,
2013-06-15 04:42:00,62.0,54.7,29.89,North,360,2.0,3.0,77,0.00,,,0.00,0,Wunderground v.1.15,2013-06-15 08:42:00,
2013-06-15 04:49:00,62.1,54.8,29.90,North,360,1.0,1.0,77,0.00,,,0.00,0,Wunderground v.1.15,2013-06-15 08:49:00,
2013-06-15 04:56:00,62.1,54.8,29.90,North,360,1.0,1.0,77,0.00,,,0.00,0,Wunderground v.1.15,2013-06-15 08:56:00,
2013-06-15 05:02:00,62.3,55.0,29.90,North,360,2.0,2.0,77,0.00,,,0.00,0,Wunderground v.1.15,2013-06-15 09:02:00,
2013-06-15 05:13:00,62.3,55.0,29.90,North,360,1.0,4.0,77,0.00,,,0.00,0,Wunderground v.1.15,2013-06-15 09:13:00,
2013-06-15 05:24:00,62.3,55.0,29.90,North,360,2.0,2.0,77,0.00,,,0.00,0,Wunderground v.1.15,2013-06-15 09:24:00,
2013-06-15 05:33:00,62.3,55.0,29.91,North,360,1.0,2.0,77,0.00,,,0.00,7,Wunderground v.1.15,2013-06-15 09:33:00,
2013-06-15 05:40:00,62.1,54.8,29.91,North,360,1.0,2.0,77,0.00,,,0.00,11,Wunderground v.1.15,2013-06-15 09:40:00,
2013-06-15 05:49:00,62.1,54.8,29.91,North,360,0.0,0.0,77,0.00,,,0.00,18,Wunderground v.1.15,2013-06-15 09:49:00,
2013-06-15 05:59:00,62.0,55.1,29.91,North,360,0.0,0.0,78,0.00,,,0.00,25,Wunderground v.1.15,2013-06-15 09:59:00,
2013-06-15 06:11:00,62.0,55.1,29.91,North,360,0.0,0.0,78,0.00,,,0.00,35,Wunderground v.1.15,2013-06-15 10:11:00,
2013-06-15 06:25:00,62.0,55.4,29.91,North,360,0.0,0.0,79,0.00,,,0.00,88,Wunderground v.1.15,2013-06-15 10:25:00,
2013-06-15 06:35:00,62.1,55.5,29.92,North,360,0.0,0.0,79,0.00,,,0.00,109,Wunderground v.1.15,2013-06-15 10:35:00,
2013-06-15 06:43:00,62.4,56.1,29.92,North,360,0.0,0.0,80,0.00,,,0.00,127,Wunderground v.1.15,2013-06-15 10:43:00,
2013-06-15 06:53:00,63.1,56.5,29.93,North,360,0.0,0.0,79,0.00,,,0.00,151,Wunderground v.1.15,2013-06-15 10:53:00,
2013-06-15 07:03:00,63.7,56.4,29.93,North,360,0.0,2.0,77,0.00,,,0.00,176,Wunderground v.1.15,2013-06-15 11:03:00,
2013-06-15 07:13:00,64.2,56.5,29.93,North,360,0.0,0.0,76,0.00,,,0.00,200,Wunderground v.1.15,2013-06-15 11:13:00,
2013-06-15 07:24:00,65.0,56.9,29.93,North,360,0.0,0.0,75,0.00,,,0.00,232,Wunderground v.1.15,2013-06-15 11:24:00,
2013-06-15 07:32:00,65.5,56.6,29.94,North,360,0.0,0.0,73,0.00,,,0.00,255,Wunderground v.1.15,2013-06-15 11:32:00,
2013-06-15 07:44:00,66.1,56.4,29.94,North,360,0.0,0.0,71,0.00,,,0.00,287,Wunderground v.1.15,2013-06-15 11:44:00,
2013-06-15 07:53:00,66.6,56.5,29.94,North,360,0.0,2.0,70,0.00,,,0.00,308,Wunderground v.1.15,2013-06-15 11:53:00,
2013-06-15 08:03:00,67.1,56.6,29.94,North,360,0.0,1.0,69,0.00,,,0.00,336,Wunderground v.1.15,2013-06-15 12:03:00,
2013-06-15 08:13:00,67.8,56.4,29.94,North,360,0.0,0.0,67,0.00,,,0.00,360,Wunderground v.1.15,2013-06-15 12:13:00,
2013-06-15 08:23:00,68.3,56.5,29.95,North,360,1.0,1.0,66,0.00,,,0.00,390,Wunderground v.1.15,2013-06-15 12:23:00,
2013-06-15 08:33:00,69.1,56.8,29.96,North,360,0.0,0.0,65,0.00,,,0.00,413,Wunderground v.1.15,2013-06-15 12:33:00,
2013-06-15 08:40:00,69.6,56.0,29.96,North,360,0.0,3.0,62,0.00,,,0.00,438,Wunderground v.1.15,2013-06-15 12:40:00,
2013-06-15 08:46:00,70.1,55.6,29.97,North,360,1.0,1.0,60,0.00,,,0.00,450,Wunderground v.1.15,2013-06-15 12:46:00,
2013-06-15 08:52:00,70.4,54.9,29.97,North,360,0.0,1.0,58,0.00,,,0.00,466,Wunderground v.1.15,2013-06-15 12:52:00,
2013-06-15 09:00:00,71.1,54.6,29.97,North,360,0.0,1.0,56,0.00,,,0.00,487,Wunderground v.1.15,2013-06-15 13:00:00,
2013-06-15 09:06:00,71.6,54.6,29.97,North,360,1.0,4.0,55,0.00,,,0.00,508,Wunderground v.1.15,2013-06-15 13:06:00,
2013-06-15 09:12:00,71.6,54.1,29.97,North,360,1.0,4.0,54,0.00,,,0.00,524,Wunderground v.1.15,2013-06-15 13:12:00,
2013-06-15 09:20:00,72.0,53.9,29.98,North,360,1.0,3.0,53,0.00,,,0.00,545,Wunderground v.1.15,2013-06-15 13:20:00,
2013-06-15 09:26:00,72.3,55.2,29.98,North,360,1.0,2.0,55,0.00,,,0.00,561,Wunderground v.1.15,2013-06-15 13:26:00,
2013-06-15 09:32:00,72.8,53.6,29.98,North,360,1.0,2.0,51,0.00,,,0.00,570,Wunderground v.1.15,2013-06-15 13:32:00,
2013-06-15 09:37:00,73.0,53.3,29.98,North,360,1.0,3.0,50,0.00,,,0.00,582,Wunderground v.1.15,2013-06-15 13:37:00,
2013-06-15 09:43:00,73.3,53.0,29.98,North,360,2.0,3.0,49,0.00,,,0.00,599,Wunderground v.1.15,2013-06-15 13:43:00,
2013-06-15 09:50:00,73.9,53.5,29.98,North,360,1.0,2.0,49,0.00,,,0.00,612,Wunderground v.1.15,2013-06-15 13:50:00,
2013-06-15 09:57:00,74.0,51.3,29.98,North,360,2.0,3.0,45,0.00,,,0.00,636,Wunderground v.1.15,2013-06-15 13:57:00,
2013-06-15 10:03:00,74.4,51.7,29.97,North,360,2.0,3.0,45,0.00,,,0.00,647,Wunderground v.1.15,2013-06-15 14:03:00,
2013-06-15 10:10:00,74.7,52.5,29.97,North,360,1.0,3.0,46,0.00,,,0.00,659,Wunderground v.1.15,2013-06-15 14:10:00,
2013-06-15 10:15:00,74.9,47.6,29.96,North,360,1.0,7.0,38,0.00,,,0.00,675,Wunderground v.1.15,2013-06-15 14:15:00,
2013-06-15 10:21:00,75.1,45.6,29.96,North,360,3.0,7.0,35,0.00,,,0.00,682,Wunderground v.1.15,2013-06-15 14:21:00,
2013-06-15 10:27:00,75.8,44.6,29.96,North,360,3.0,3.0,33,0.00,,,0.00,691,Wunderground v.1.15,2013-06-15 14:27:00,
2013-06-15 10:33:00,76.3,47.4,29.96,North,360,1.0,3.0,36,0.00,,,0.00,700,Wunderground v.1.15,2013-06-15 14:33:00,
2013-06-15 10:41:00,76.8,47.1,29.96,North,360,2.0,4.0,35,0.00,,,0.00,714,Wunderground v.1.15,2013-06-15 14:41:00,
2013-06-15 10:46:00,77.0,48.7,29.96,North,360,3.0,3.0,37,0.00,,,0.00,722,Wunderground v.1.15,2013-06-15 14:46:00,
2013-06-15 10:52:00,77.2,47.4,29.96,North,360,1.0,3.0,35,0.00,,,0.00,731,Wunderground v.1.15,2013-06-15 14:52:00,
2013-06-15 10:59:00,77.7,47.9,29.96,North,360,1.0,6.0,35,0.00,,,0.00,747,Wunderground v.1.15,2013-06-15 14:59:00,
2013-06-15 11:04:00,77.7,47.1,29.97,North,360,1.0,6.0,34,0.00,,,0.00,754,Wunderground v.1.15,2013-06-15 15:04:00,
2013-06-15 11:10:00,77.7,43.8,29.97,North,360,1.0,3.0,30,0.00,,,0.00,765,Wunderground v.1.15,2013-06-15 15:10:00,
2013-06-15 11:16:00,77.9,44.0,29.97,North,360,2.0,2.0,30,0.00,,,0.00,779,Wunderground v.1.15,2013-06-15 15:16:00,
2013-06-15 11:22:00,77.9,44.0,29.97,North,360,2.0,4.0,30,0.00,,,0.00,782,Wunderground v.1.15,2013-06-15 15:22:00,
2013-06-15 11:29:00,77.7,42.9,29.97,North,360,3.0,8.0,29,0.00,,,0.00,786,Wunderground v.1.15,2013-06-15 15:29:00,
2013-06-15 11:34:00,77.9,43.1,29.96,North,360,3.0,8.0,29,0.00,,,0.00,793,Wunderground v.1.15,2013-06-15 15:34:00,
2013-06-15 11:40:00,78.5,44.5,29.96,North,360,3.0,3.0,30,0.00,,,0.00,796,Wunderground v.1.15,2013-06-15 15:40:00,
2013-06-15 11:46:00,78.8,45.6,29.97,North,360,3.0,3.0,31,0.00,,,0.00,803,Wunderground v.1.15,2013-06-15 15:46:00,
2013-06-15 11:52:00,79.2,45.9,29.97,North,360,2.0,3.0,31,0.00,,,0.00,810,Wunderground v.1.15,2013-06-15 15:52:00,
2013-06-15 11:59:00,79.6,45.4,29.97,North,360,1.0,4.0,30,0.00,,,0.00,819,Wunderground v.1.15,2013-06-15 15:59:00,
2013-06-15 12:06:00,79.4,42.5,29.96,North,360,2.0,2.0,27,0.00,,,0.00,824,Wunderground v.1.15,2013-06-15 16:06:00,
2013-06-15 12:12:00,79.8,42.8,29.96,North,360,2.0,2.0,27,0.00,,,0.00,812,Wunderground v.1.15,2013-06-15 16:12:00,
2013-06-15 12:20:00,79.8,41.9,29.96,North,360,3.0,5.0,26,0.00,,,0.00,837,Wunderground v.1.15,2013-06-15 16:20:00,
2013-06-15 12:26:00,79.8,43.8,29.96,North,360,3.0,7.0,28,0.00,,,0.00,875,Wunderground v.1.15,2013-06-15 16:26:00,
2013-06-15 12:31:00,79.8,42.8,29.95,North,360,2.0,7.0,27,0.00,,,0.00,860,Wunderground v.1.15,2013-06-15 16:31:00,
2013-06-15 12:37:00,80.3,44.2,29.95,North,360,2.0,2.0,28,0.00,,,0.00,874,Wunderground v.1.15,2013-06-15 16:37:00,
2013-06-15 12:43:00,80.7,42.6,29.95,North,360,2.0,4.0,26,0.00,,,0.00,904,Wunderground v.1.15,2013-06-15 16:43:00,
2013-06-15 12:50:00,81.2,43.0,29.94,North,360,1.0,3.0,26,0.00,,,0.00,944,Wunderground v.1.15,2013-06-15 16:50:00,
2013-06-15 12:55:00,81.4,43.2,29.94,North,360,2.0,4.0,26,0.00,,,0.00,951,Wunderground v.1.15,2013-06-15 16:55:00,
2013-06-15 13:01:00,81.4,41.1,29.94,North,360,3.0,5.0,24,0.00,,,0.00,921,Wunderground v.1.15,2013-06-15 17:01:00,
2013-06-15 13:07:00,81.2,42.0,29.94,North,360,3.0,4.0,25,0.00,,,0.00,896,Wunderground v.1.15,2013-06-15 17:07:00,
2013-06-15 13:13:00,81.8,44.5,29.94,North,360,3.0,4.0,27,0.00,,,0.00,918,Wunderground v.1.15,2013-06-15 17:13:00,
2013-06-15 13:21:00,82.4,43.0,29.94,North,360,2.0,2.0,25,0.00,,,0.00,914,Wunderground v.1.15,2013-06-15 17:21:00,
2013-06-15 13:27:00,81.8,43.6,29.94,North,360,2.0,2.0,26,0.00,,,0.00,928,Wunderground v.1.15,2013-06-15 17:27:00,
2013-06-15 13:33:00,81.6,42.4,29.94,North,360,4.0,7.0,25,0.00,,,0.00,854,Wunderground v.1.15,2013-06-15 17:33:00,
2013-06-15 13:39:00,81.2,44.0,29.94,North,360,4.0,8.0,27,0.00,,,0.00,868,Wunderground v.1.15,2013-06-15 17:39:00,
2013-06-15 13:46:00,81.1,43.9,29.94,North,360,3.0,3.0,27,0.00,,,0.00,861,Wunderground v.1.15,2013-06-15 17:46:00,
2013-06-15 13:53:00,81.1,45.8,29.94,North,360,3.0,3.0,29,0.00,,,0.00,875,Wunderground v.1.15,2013-06-15 17:53:00,
2013-06-15 13:59:00,81.1,45.8,29.94,North,360,2.0,3.0,29,0.00,,,0.00,882,Wunderground v.1.15,2013-06-15 17:59:00,
2013-06-15 14:04:00,81.8,44.5,29.94,North,360,2.0,2.0,27,0.00,,,0.00,234,Wunderground v.1.15,2013-06-15 18:04:00,
2013-06-15 14:10:00,80.9,44.7,29.94,North,360,4.0,8.0,28,0.00,,,0.00,220,Wunderground v.1.15,2013-06-15 18:10:00,
2013-06-15 14:16:00,80.3,45.1,29.93,North,360,3.0,3.0,29,0.00,,,0.00,174,Wunderground v.1.15,2013-06-15 18:16:00,
2013-06-15 14:22:00,80.3,46.9,29.93,North,360,3.0,4.0,31,0.00,,,0.00,861,Wunderground v.1.15,2013-06-15 18:22:00,
2013-06-15 14:29:00,80.3,46.9,29.93,North,360,3.0,5.0,31,0.00,,,0.00,817,Wunderground v.1.15,2013-06-15 18:29:00,
2013-06-15 14:36:00,80.9,49.1,29.93,North,360,2.0,2.0,33,0.00,,,0.00,817,Wunderground v.1.15,2013-06-15 18:36:00,
2013-06-15 14:42:00,81.2,47.7,29.93,North,360,2.0,4.0,31,0.00,,,0.00,199,Wunderground v.1.15,2013-06-15 18:42:00,
2013-06-15 14:50:00,80.9,48.3,29.92,North,360,1.0,2.0,32,0.00,,,0.00,847,Wunderground v.1.15,2013-06-15 18:50:00,
2013-06-15 14:56:00,80.3,46.9,29.92,North,360,2.0,2.0,31,0.00,,,0.00,209,Wunderground v.1.15,2013-06-15 18:56:00,
2013-06-15 15:02:00,80.3,47.7,29.92,North,360,2.0,2.0,32,0.00,,,0.00,798,Wunderground v.1.15,2013-06-15 19:02:00,
2013-06-15 15:09:00,80.7,48.1,29.92,North,360,2.0,5.0,32,0.00,,,0.00,812,Wunderground v.1.15,2013-06-15 19:09:00,
2013-06-15 15:16:00,80.5,47.9,29.92,North,360,2.0,2.0,32,0.00,,,0.00,165,Wunderground v.1.15,2013-06-15 19:16:00,
2013-06-15 15:22:00,80.7,48.9,29.92,North,360,2.0,6.0,33,0.00,,,0.00,751,Wunderground v.1.15,2013-06-15 19:22:00,
2013-06-15 15:28:00,81.2,49.4,29.92,North,360,2.0,4.0,33,0.00,,,0.00,127,Wunderground v.1.15,2013-06-15 19:28:00,
2013-06-15 15:35:00,80.3,47.7,29.91,North,360,1.0,4.0,32,0.00,,,0.00,715,Wunderground v.1.15,2013-06-15 19:35:00,
2013-06-15 15:41:00,81.2,47.7,29.91,North,360,2.0,6.0,31,0.00,,,0.00,710,Wunderground v.1.15,2013-06-15 19:41:00,
2013-06-15 15:47:00,81.2,50.2,29.91,North,360,3.0,4.0,34,0.00,,,0.00,705,Wunderground v.1.15,2013-06-15 19:47:00,
2013-06-15 15:53:00,81.8,46.4,29.91,North,360,3.0,6.0,29,0.00,,,0.00,687,Wunderground v.1.15,2013-06-15 19:53:00,
2013-06-15 15:59:00,82.2,46.8,29.90,North,360,3.0,3.0,29,0.00,,,0.00,111,Wunderground v.1.15,2013-06-15 19:59:00,
2013-06-15 16:05:00,80.9,46.6,29.90,North,360,2.0,4.0,30,0.00,,,0.00,724,Wunderground v.1.15,2013-06-15 20:05:00,
2013-06-15 16:11:00,80.5,47.9,29.90,North,360,1.0,2.0,32,0.00,,,0.00,160,Wunderground v.1.15,2013-06-15 20:11:00,
2013-06-15 16:17:00,80.7,46.4,29.90,North,360,1.0,3.0,30,0.00,,,0.00,715,Wunderground v.1.15,2013-06-15 20:17:00,
2013-06-15 16:23:00,80.9,45.7,29.90,North,360,1.0,3.0,29,0.00,,,0.00,617,Wunderground v.1.15,2013-06-15 20:23:00,
2013-06-15 16:29:00,81.1,45.8,29.90,North,360,0.0,4.0,29,0.00,,,0.00,244,Wunderground v.1.15,2013-06-15 20:29:00,
2013-06-15 16:37:00,81.1,45.8,29.90,North,360,1.0,2.0,29,0.00,,,0.00,186,Wunderground v.1.15,2013-06-15 20:37:00,
2013-06-15 16:43:00,81.1,45.8,29.90,North,360,2.0,2.0,29,0.00,,,0.00,617,Wunderground v.1.15,2013-06-15 20:43:00,
2013-06-15 16:49:00,81.2,47.7,29.91,North,360,2.0,2.0,31,0.00,,,0.00,575,Wunderground v.1.15,2013-06-15 20:49:00,
2013-06-15 16:54:00,81.6,45.3,29.91,North,360,1.0,1.0,28,0.00,,,0.00,552,Wunderground v.1.15,2013-06-15 20:54:00,
2013-06-15 17:00:00,81.8,43.6,29.91,North,360,2.0,3.0,26,0.00,,,0.00,501,Wunderground v.1.15,2013-06-15 21:00:00,
2013-06-15 17:06:00,81.8,44.5,29.91,North,360,3.0,4.0,27,0.00,,,0.00,476,Wunderground v.1.15,2013-06-15 21:06:00,
2013-06-15 17:12:00,81.2,45.0,29.91,North,360,3.0,4.0,28,0.00,,,0.00,468,Wunderground v.1.15,2013-06-15 21:12:00,
2013-06-15 17:20:00,81.1,41.9,29.91,North,360,2.0,2.0,25,0.00,,,0.00,464,Wunderground v.1.15,2013-06-15 21:20:00,
2013-06-15 17:26:00,81.4,43.2,29.91,North,360,2.0,6.0,26,0.00,,,0.00,425,Wunderground v.1.15,2013-06-15 21:26:00,
2013-06-15 17:32:00,81.4,44.2,29.91,North,360,2.0,6.0,27,0.00,,,0.00,401,Wunderground v.1.15,2013-06-15 21:32:00,
2013-06-15 17:40:00,81.1,43.9,29.91,North,360,1.0,2.0,27,0.00,,,0.00,378,Wunderground v.1.15,2013-06-15 21:40:00,
2013-06-15 17:46:00,81.1,44.9,29.91,North,360,1.0,2.0,28,0.00,,,0.00,353,Wunderground v.1.15,2013-06-15 21:46:00,
2013-06-15 17:52:00,80.9,42.8,29.91,North,360,1.0,2.0,26,0.00,,,0.00,343,Wunderground v.1.15,2013-06-15 21:52:00,
2013-06-15 18:00:00,80.3,42.3,29.91,North,360,1.0,2.0,26,0.00,,,0.00,294,Wunderground v.1.15,2013-06-15 22:00:00,
2013-06-15 18:06:00,80.1,43.1,29.91,North,360,1.0,1.0,27,0.00,,,0.00,309,Wunderground v.1.15,2013-06-15 22:06:00,
2013-06-15 18:12:00,80.3,43.3,29.91,North,360,2.0,5.0,27,0.00,,,0.00,287,Wunderground v.1.15,2013-06-15 22:12:00,
2013-06-15 18:20:00,80.1,43.1,29.91,North,360,2.0,2.0,27,0.00,,,0.00,260,Wunderground v.1.15,2013-06-15 22:20:00,
2013-06-15 18:26:00,79.9,42.9,29.91,North,360,3.0,3.0,27,0.00,,,0.00,139,Wunderground v.1.15,2013-06-15 22:26:00,
2013-06-15 18:31:00,79.8,43.8,29.91,North,360,2.0,3.0,28,0.00,,,0.00,97,Wunderground v.1.15,2013-06-15 22:31:00,
2013-06-15 18:37:00,79.6,43.6,29.91,North,360,1.0,3.0,28,0.00,,,0.00,49,Wunderground v.1.15,2013-06-15 22:37:00,
2013-06-15 18:43:00,79.4,44.4,29.91,North,360,1.0,3.0,29,0.00,,,0.00,44,Wunderground v.1.15,2013-06-15 22:43:00,
2013-06-15 18:50:00,79.4,43.4,29.91,North,360,1.0,1.0,28,0.00,,,0.00,44,Wunderground v.1.15,2013-06-15 22:50:00,
2013-06-15 18:57:00,79.2,44.2,29.91,North,360,1.0,1.0,29,0.00,,,0.00,46,Wunderground v.1.15,2013-06-15 22:57:00,
2013-06-15 19:03:00,79.0,44.0,29.91,North,360,1.0,6.0,29,0.00,,,0.00,56,Wunderground v.1.15,2013-06-15 23:03:00,
2013-06-15 19:09:00,78.8,42.9,29.91,North,360,1.0,2.0,28,0.00,,,0.00,40,Wunderground v.1.15,2013-06-15 23:09:00,
2013-06-15 19:15:00,78.8,42.9,29.90,North,360,1.0,2.0,28,0.00,,,0.00,39,Wunderground v.1.15,2013-06-15 23:15:00,
2013-06-15 19:21:00,78.6,42.8,29.90,North,360,1.0,2.0,28,0.00,,,0.00,35,Wunderground v.1.15,2013-06-15 23:21:00,
2013-06-15 19:27:00,78.5,43.6,29.90,North,360,1.0,1.0,29,0.00,,,0.00,32,Wunderground v.1.15,2013-06-15 23:27:00,
2013-06-15 19:33:00,78.5,43.6,29.91,North,360,0.0,1.0,29,0.00,,,0.00,25,Wunderground v.1.15,2013-06-15 23:33:00,
2013-06-15 19:39:00,78.3,45.2,29.91,North,360,0.0,0.0,31,0.00,,,0.00,23,Wunderground v.1.15,2013-06-15 23:39:00,
2013-06-15 19:47:00,78.1,44.1,29.91,North,360,0.0,1.0,30,0.00,,,0.00,21,Wunderground v.1.15,2013-06-15 23:47:00,
2013-06-15 19:52:00,77.7,44.6,29.91,North,360,0.0,3.0,31,0.00,,,0.00,16,Wunderground v.1.15,2013-06-15 23:52:00,
2013-06-15 19:59:00,77.6,44.6,29.91,North,360,0.0,0.0,31,0.00,,,0.00,14,Wunderground v.1.15,2013-06-15 23:59:00,
2013-06-15 20:06:00,77.2,45.0,29.92,North,360,0.0,0.0,32,0.00,,,0.00,11,Wunderground v.1.15,2013-06-16 00:06:00,
2013-06-15 20:12:00,77.0,44.9,29.92,North,360,0.0,0.0,32,0.00,,,0.00,7,Wunderground v.1.15,2013-06-16 00:12:00,
2013-06-15 20:19:00,76.8,44.7,29.92,North,360,0.0,0.0,32,0.00,,,0.00,5,Wunderground v.1.15,2013-06-16 00:19:00,
2013-06-15 20:24:00,76.7,45.4,29.92,North,360,0.0,0.0,33,0.00,,,0.00,0,Wunderground v.1.15,2013-06-16 00:24:00,
2013-06-15 20:30:00,76.3,45.1,29.92,North,360,0.0,0.0,33,0.00,,,0.00,0,Wunderground v.1.15,2013-06-16 00:30:00,
2013-06-15 20:36:00,76.1,45.7,29.92,North,360,0.0,0.0,34,0.00,,,0.00,0,Wunderground v.1.15,2013-06-16 00:36:00,
2013-06-15 20:42:00,75.8,45.4,29.92,North,360,0.0,0.0,34,0.00,,,0.00,0,Wunderground v.1.15,2013-06-16 00:42:00,
2013-06-15 20:49:00,75.4,45.8,29.92,North,360,0.0,0.0,35,0.00,,,0.00,0,Wunderground v.1.15,2013-06-16 00:49:00,
2013-06-15 20:56:00,75.1,45.6,29.92,North,360,0.0,0.0,35,0.00,,,0.00,0,Wunderground v.1.15,2013-06-16 00:56:00,
2013-06-15 21:02:00,74.7,46.7,29.92,North,360,0.0,0.0,37,0.00,,,0.00,0,Wunderground v.1.15,2013-06-16 01:02:00,
2013-06-15 21:08:00,74.4,47.1,29.92,North,360,0.0,0.0,38,0.00,,,0.00,0,Wunderground v.1.15,2013-06-16 01:08:00,
2013-06-15 21:16:00,73.9,47.4,29.93,North,360,0.0,0.0,39,0.00,,,0.00,0,Wunderground v.1.15,2013-06-16 01:16:00,
2013-06-15 21:22:00,73.5,47.7,29.93,North,360,0.0,0.0,40,0.00,,,0.00,0,Wunderground v.1.15,2013-06-16 01:22:00,
2013-06-15 21:27:00,73.2,48.1,29.93,North,360,0.0,0.0,41,0.00,,,0.00,0,Wunderground v.1.15,2013-06-16 01:27:00,
2013-06-15 21:33:00,72.8,48.4,29.93,North,360,0.0,0.0,42,0.00,,,0.00,0,Wunderground v.1.15,2013-06-16 01:33:00,
2013-06-15 21:40:00,72.5,48.7,29.93,North,360,0.0,0.0,43,0.00,,,0.00,0,Wunderground v.1.15,2013-06-16 01:40:00,
2013-06-15 21:47:00,72.1,49.0,29.94,North,360,0.0,0.0,44,0.00,,,0.00,0,Wunderground v.1.15,2013-06-16 01:47:00,
2013-06-15 21:53:00,71.8,48.7,29.94,North,360,0.0,0.0,44,0.00,,,0.00,0,Wunderground v.1.15,2013-06-16 01:53:00,
2013-06-15 22:01:00,71.3,49.4,29.94,North,360,0.0,0.0,46,0.00,,,0.00,0,Wunderground v.1.15,2013-06-16 02:01:00,
2013-06-15 22:07:00,70.9,49.7,29.94,North,360,0.0,0.0,47,0.00,,,0.00,0,Wunderground v.1.15,2013-06-16 02:07:00,
2013-06-15 22:13:00,70.8,50.7,29.94,North,360,0.0,0.0,49,0.00,,,0.00,0,Wunderground v.1.15,2013-06-16 02:13:00,
2013-06-15 22:19:00,70.4,50.3,29.94,North,360,0.0,0.0,49,0.00,,,0.00,0,Wunderground v.1.15,2013-06-16 02:19:00,
2013-06-15 22:27:00,70.3,50.8,29.94,North,360,0.0,0.0,50,0.00,,,0.00,0,Wunderground v.1.15,2013-06-16 02:27:00,
2013-06-15 22:32:00,70.1,51.1,29.94,North,360,0.0,0.0,51,0.00,,,0.00,0,Wunderground v.1.15,2013-06-16 02:32:00,
2013-06-15 22:39:00,69.9,51.5,29.94,North,360,0.0,0.0,52,0.00,,,0.00,0,Wunderground v.1.15,2013-06-16 02:39:00,
2013-06-15 22:44:00,69.6,51.2,29.95,North,360,0.0,0.0,52,0.00,,,0.00,0,Wunderground v.1.15,2013-06-16 02:44:00,
2013-06-15 22:50:00,69.4,51.5,29.95,North,360,0.0,0.0,53,0.00,,,0.00,0,Wunderground v.1.15,2013-06-16 02:50:00,
2013-06-15 22:56:00,69.1,52.2,29.95,North,360,0.0,0.0,55,0.00,,,0.00,0,Wunderground v.1.15,2013-06-16 02:56:00,
2013-06-15 23:02:00,68.9,53.0,29.95,North,360,0.0,0.0,57,0.00,,,0.00,0,Wunderground v.1.15,2013-06-16 03:02:00,
2013-06-15 23:09:00,68.4,52.6,29.95,North,360,0.0,0.0,57,0.00,,,0.00,0,Wunderground v.1.15,2013-06-16 03:09:00,
2013-06-15 23:14:00,68.3,52.5,29.95,North,360,0.0,0.0,57,0.00,,,0.00,0,Wunderground v.1.15,2013-06-16 03:14:00,
2013-06-15 23:20:00,68.3,52.5,29.95,North,360,0.0,0.0,57,0.00,,,0.00,0,Wunderground v.1.15,2013-06-16 03:20:00,
2013-06-15 23:26:00,68.3,52.5,29.95,North,360,0.0,0.0,57,0.00,,,0.00,0,Wunderground v.1.15,2013-06-16 03:26:00,
2013-06-15 23:32:00,68.1,51.8,29.95,North,360,0.0,0.0,56,0.00,,,0.00,0,Wunderground v.1.15,2013-06-16 03:32:00,
2013-06-15 23:39:00,68.1,51.8,29.95,North,360,0.0,0.0,56,0.00,,,0.00,0,Wunderground v.1.15,2013-06-16 03:39:00,
2013-06-15 23:46:00,67.9,52.1,29.95,North,360,0.0,0.0,57,0.00,,,0.00,0,Wunderground v.1.15,2013-06-16 03:46:00,
2013-06-15 23:52:00,67.8,52.0,29.95,North,360,0.0,0.0,57,0.00,,,0.00,0,Wunderground v.1.15,2013-06-16 03:52:00,
2013-06-15 23:59:00,67.6,52.3,29.95,North,360,0.0,0.0,58,0.00,,,0.00,0,Wunderground v.1.15,2013-06-16 03:59:00,